CZ-2D DEB

基本信息
目录编号:
43403
目录名称:
CZ-2D DEB
国际标识:
2012-052C
轨道中心:
EARTH
物体状态:
在轨
发射日期:
2012-09-29 UTC
轨道信息
数据来源: 国际轨道数据
星历时间: 2026-09-11T08:16:48+0800
半长轴: 7127.296km
偏心率: 0.0189044
轨道倾角: 98.019°
近地点辐角: 36.189°
升交点赤经: 340.044°
平近点角: 325.192°
近地点: 614.421km
远地点: 883.897km
周期: 99.804分钟
每日圈数: 14.428315
详细信息
发射场:
JSC
轨道高度:
LEO
数据来源:
AOE Integration Group
参考系:
TEME
时间系统:
UTC
历元类型:
SGP4
2D轨道图
3D轨道图
轨道高度分析图
轨道倾角分析图
轨道综合分析图
查看轨道综合分析图